weather.gov     
National Weather Service

Regional Weather Roundup
NWS Homepage
This page is being discontinued on March 12, 2014.
The same data is available at this site. Please update your bookmarks.
Thank you, and we apologize for the inconvenience.
Please send an email to SR-SRH.Webmaster@noaa.gov with any concerns.


Current Version
Previous Version:    01  02  03  04  05  06  07  08  09  10  11  12  13  14  15  16  17  18  19  20  21  22  23  24  25  26  27  28  29  30  
   31  32  33  34  35  36  37  38  39  40  41  42  43  44  45  46  47  48  49  50  
[Printable]
138
ASUS44 KFWD 230015
RWRTX
NORTH TEXAS HOURLY WEATHER ROUNDUP
NATIONAL WEATHER SERVICE FORT WORTH TX
700 PM CDT WED OCT 22 2014

NOTE: "FAIR" INDICATES FEW OR NO CLOUDS BELOW 12,000 FEET WITH NO
SIGNIFICANT WEATHER AND/OR OBSTRUCTIONS TO VISIBILITY.

TXZ118-119-230100-
DALLAS/FORT WORTH METROPLEX

CITY           SKY/WX    TMP DP  RH WIND       PRES   REMARKS
DFW AIRPORT    CLOUDY    76  56  49 E7        30.08R
6HR MIN TEMP:  76; 6HR MAX TEMP:  80;

DALLAS LOVE    MOCLDY    76  56  49 E8        30.08R
6HR MIN TEMP:  76; 6HR MAX TEMP:  81;

FTW MEACHAM    MOCLDY    76  57  51 SE7       30.08R
6HR MIN TEMP:  76; 6HR MAX TEMP:  82;

DAL-EXECUTIVE  MOCLDY    75  56  51 E6        30.08R
6HR MIN TEMP:  75; 6HR MAX TEMP:  81;

FTW-ALLIANCE   CLOUDY    75  56  51 SE6       30.08R
6HR MIN TEMP:  75; 6HR MAX TEMP:  81;

FTW-NAS-JRB    MOCLDY    82  55  39 SE8       30.12R
6HR MIN TEMP:  78; 6HR MAX TEMP:  88;

FTW-SPINKS     CLEAR     73  57  56 CALM      30.10R
ARLINGTON      MOCLDY    76  56  49 E6        30.08R
6HR MIN TEMP:  76; 6HR MAX TEMP:  80;

GRAND PRAIRIE  CLEAR     75  59  57 MISG      30.09S
MESQUITE       CLEAR     73  55  53 E6        30.09R
LANCASTER      PTCLDY    74  54  49 E5        30.09S
6HR MIN TEMP:  74; 6HR MAX TEMP:  80;

$$

TXZ091>094-102>105-117-120-121-131>134-230100-
NORTH CENTRAL TEXAS

CITY           SKY/WX    TMP DP  RH WIND       PRES   REMARKS
SHRMAN/DENISON PTCLDY    72  60  66 E5        30.11R
6HR MIN TEMP:  72; 6HR MAX TEMP:  80;

GAINESVILLE    CLOUDY    72  58  61 SE5       30.11S
6HR MIN TEMP:  72; 6HR MAX TEMP:  78;

BOWIE          CLOUDY    71  60  68 CALM      30.10R
6HR MIN TEMP:  71; 6HR MAX TEMP:  79;

BRIDGEPORT     MOCLDY    74  60  60 S3        30.11R
6HR MIN TEMP:  74; 6HR MAX TEMP:  79;

DECATUR        CLOUDY    73  56  54 SE5       30.09S
6HR MIN TEMP:  73; 6HR MAX TEMP:  79;

DENTON         CLOUDY    74  57  55 E6        30.08R
6HR MIN TEMP:  74; 6HR MAX TEMP:  79;

MCKINNEY       PTCLDY    73  57  57 E3        30.09R
6HR MIN TEMP:  73; 6HR MAX TEMP:  80;

GREENVILLE     PTCLDY    72  54  53 CALM      30.11R
ROCKWALL       CLEAR     72  57  59 E6        30.08S
6HR MIN TEMP:  72; 6HR MAX TEMP:  80;

TERRELL        CLEAR     72  56  57 NE5       30.10R
6HR MIN TEMP:  72; 6HR MAX TEMP:  81;

WAXAHACHIE     MOCLDY    72  58  62 CALM      30.10R
6HR MIN TEMP:  72; 6HR MAX TEMP:  82;

CLEBURNE       PTCLDY    73  61  64 E6        30.10R
GRANBURY       PTCLDY    77  59  54 E7        30.09R
6HR MIN TEMP:  77; 6HR MAX TEMP:  81;

$$

TXZ083>090-098>101-113>116-127>130-139>142-154-155-230100-
WESTERN NORTH TEXAS

CITY           SKY/WX    TMP DP  RH WIND       PRES   REMARKS
WICHITA FALLS  CLOUDY    71  58  63 S6        30.09R
6HR MIN TEMP:  71; 6HR MAX TEMP:  78; 6HR PCP: TRACE;

WF-KICKAPOO    CLOUDY    73  57  58 CALM      30.10S
6HR MIN TEMP:  72; 6HR MAX TEMP:  79;

VERNON         CLOUDY    64  61  88 CALM      30.11R
ABILENE        CLOUDY    69  59  70 NE3       30.11R
6HR MIN TEMP:  68; 6HR MAX TEMP:  76; 6HR PCP:  0.01;

ABILENE-DYESS  CLOUDY    68  58  69 NE1       30.10R
6HR MIN TEMP:  68; 6HR MAX TEMP:  74; 6HR PCP:  0.02;

BRECKENRIDGE   DRIZZLE   71  65  80 CALM      30.09S
6HR MIN TEMP:  71; 6HR MAX TEMP:  78;

GRAHAM         CLOUDY    72  60  65 CALM      30.08S
6HR MIN TEMP:  72; 6HR MAX TEMP:  75;

MINERAL WELLS  PTCLDY    74  56  53 CALM      30.08R
6HR MIN TEMP:  73; 6HR MAX TEMP:  80;

STEPHENVILLE   MOCLDY    73  57  58 SE3       30.12S
6HR MIN TEMP:  73; 6HR MAX TEMP:  78;

COMANCHE       MOCLDY    73  59  60 E5        30.09R
6HR MIN TEMP:  73; 6HR MAX TEMP:  82;

BROWNWOOD      CLOUDY    73  55  53 CALM      30.08S
COLEMAN        CLOUDY    67  61  80 N5        30.09S
6HR MIN TEMP:  67; 6HR MAX TEMP:  78;

BRADY          CLOUDY    73  52  46 SW5       30.10R
$$

TXZ143>147-156>162-174-175-230100-
CENTRAL TEXAS

CITY           SKY/WX    TMP DP  RH WIND       PRES   REMARKS
WACO           MOCLDY    74  58  57 E3        30.08R
WACO-TSTC      CLEAR     73  59  60 CALM      30.08R
WACO-MCGREGOR  MOCLDY    75  55  50 E5        30.09R
6HR MIN TEMP:  75; 6HR MAX TEMP:  82;

HILLSBORO      PTCLDY    74  56  53 E5        30.09R
6HR MIN TEMP:  74; 6HR MAX TEMP:  82;

CORSICANA      CLEAR     72  54  53 E3        30.10R
6HR MIN TEMP:  72; 6HR MAX TEMP:  81;

MEXIA          CLEAR     71  57  62 CALM      30.08R
6HR MIN TEMP:  71; 6HR MAX TEMP:  80;

HEARNE         PTCLDY    74  59  58 CALM      30.08R
6HR MIN TEMP:  74; 6HR MAX TEMP:  81;

CAMERON        PTCLDY    74  61  63 CALM      30.07R
6HR MIN TEMP:  74; 6HR MAX TEMP:  82;

TEMPLE         MOCLDY    73  55  53 E6        30.08R
6HR MIN TEMP:  73; 6HR MAX TEMP:  82;

KILLEEN        MOCLDY    75  57  53 E6        30.08R
KILLEEN-SKYLRK MOCLDY    73  57  56 E3        30.08R
6HR MIN TEMP:  73; 6HR MAX TEMP:  81;

FORT HOOD      MOCLDY    76  60  57 E3        30.08R
6HR MIN TEMP:  76; 6HR MAX TEMP:  84;

GATESVILLE     MOCLDY    73  61  64 CALM      30.10S
HAMILTON       PTCLDY    73  56  55 E13       30.09F
6HR MIN TEMP:  73; 6HR MAX TEMP:  81;

LAMPASAS       CLOUDY    74  62  65 E3        30.07S
6HR MIN TEMP:  74; 6HR MAX TEMP:  81;

$$

TXZ095>097-106>112-122>126-135>138-148>153-164>167-230100-
EAST TEXAS

CITY           SKY/WX    TMP DP  RH WIND       PRES   REMARKS
PARIS          CLEAR     66  52  59 E6        30.13R
6HR MIN TEMP:  66; 6HR MAX TEMP:  79;

SULPHUR SPRNGS CLEAR     72  52  48 SE5       30.13R
6HR MIN TEMP:  72; 6HR MAX TEMP:  80;

MOUNT PLEASANT CLEAR     68  53  58 CALM      30.13R
6HR MIN TEMP:  68; 6HR MAX TEMP:  79;

MINEOLA        CLEAR     66  57  72 CALM      30.12R
TYLER          CLEAR     71  54  54 E5        30.10R
6HR MIN TEMP:  71; 6HR MAX TEMP:  80;

LONGVIEW       CLEAR     67  54  63 NE3       30.10R
6HR MIN TEMP:  67; 6HR MAX TEMP:  79;

MARSHALL       CLEAR     68  57  68 CALM      30.12R
6HR MIN TEMP:  68; 6HR MAX TEMP:  79;

ATHENS         CLEAR     68  55  64 CALM      30.09R
PALESTINE      CLEAR     70  60  69 CALM      30.10R
JACKSONVILLE   CLEAR     71  54  54 CALM      30.11S
HENDERSON      CLEAR     65  55  70 CALM      30.11R
6HR MIN TEMP:  65; 6HR MAX TEMP:  79;

NACOGDOCHES    CLEAR     64  54  68 E5        30.09R
6HR MIN TEMP:  64; 6HR MAX TEMP:  79;

LUFKIN         CLEAR     71  57  61 NE5       30.07R
6HR MIN TEMP:  70; 6HR MAX TEMP:  83;

$$

SUPPLEMENTAL OBSERVATIONS (CENTRAL)

CITY           SKY/WX    TMP DP  RH WIND       PRES   REMARKS
LAKE TEXOMA      N/A     73  59  60 SE5         N/A
CADDO GRASSLND   N/A     66  55  68 E2          N/A
PAT MAYSE LAKE   N/A     72  54  53 E5          N/A
GREENVILLE       N/A     72  55  56 E2          N/A
CEDAR HILL       N/A     72  55  56 SE1         N/A
ATHENS           N/A     72  54  53 NE2         N/A
PALESTINE        N/A     66  59  77 CALM        N/A
LAKE LIMESTONE   N/A     72  57  60 NE3         N/A
MCGREGOR         N/A     73  57  56 E2          N/A
TEMPLE           N/A     73  57  56 NE5         N/A
$$

SUPPLEMENTAL OBSERVATIONS (WEST)

CITY           SKY/WX    TMP DP  RH WIND       PRES   REMARKS
MILLERS CREEK    N/A     66  54  63 NW6         N/A




U.S. Dept. of Commerce
NOAA National Weather Service
1325 East West Highway
Silver Spring, MD 20910
E-mail: w-nws.webmaster@noaa.gov
Page last modified: May 16, 2007
NATIONAL WEATHER SERVICE: for Safety, for Work, for Fun - FOR LIFE